Olympia, WA

11:26 PM PDT on September 23, 2017 (GMT -0700)
Olympia

Weather History for KOLM - October, 2012

Change the Weather History Date:

Friday, October 5, 2012

  Actual Average Record
Temperature  
Mean Temperature 50 °F 53 °F  
Max Temperature 71 °F 65 °F 89 °F (1980)
Min Temperature 28 °F 42 °F 28 °F (2012)
Degree Days  
Heating Degree Days 15 12  
Month to date heating degree days 62 55  
Since 1 July heating degree days 407 395  
Cooling Degree Days 0 0  
Month to date cooling degree days 0 0  
Year to date cooling degree days 82 106  
Moisture  
Dew Point 31 °F    
Average Humidity 58    
Maximum Humidity 96    
Minimum Humidity 20    
Precipitation  
Precipitation 0.00 in 0.09 in 1.97 in (1981)
Month to date precipitation 0.00 0.44  
Year to date precipitation 32.63 29.75  
Sea Level Pressure  
Sea Level Pressure 30.24 in    
Wind  
Wind Speed 4 mph (NNE)    
Max Wind Speed 16 mph    
Max Gust Speed 22 mph    
Visibility 10 miles    
Events      
T = Trace of Precipitation, MM = Missing Value Source: NWS Daily Summary

Daily Weather History Graph

Daily Weather History Graph

Search for Another Location

Airport or City:

Trip Planner

Search our weather history database for the weather conditions in past years. The results will help you decide how hot, cold, wet, or windy it might be!

Date:

Astronomy

Oct. 05, 2012 Rise Set
Actual Time 7:16 AM PDT 6:42 PM PDT
Civil Twilight 6:46 AM PDT 7:12 PM PDT
Nautical Twilight 6:10 AM PDT 7:47 PM PDT
Astronomical Twilight 5:35 AM PDT 8:23 PM PDT
Moon 9:52 PM PDT (10/5) 12:47 PM PDT (10/5)
Length of Visible Light 12h 26m
Length of Day
11h 25m
Waning Gibbous, 73% of the Moon is Illuminated
Oct 5
Waning Gibbous
Oct 8
Last Quarter
Oct 15
New
Oct 21
First Quarter
Oct 29
Full

Hourly Weather History & Observations

Time (PDT) Temp. Windchill Dew Point Humidity Pressure Visibility Wind Dir Wind Speed Gust Speed Precip Events Conditions
12:54 AM 39.0 °F - 33.1 °F 79% 30.26 in 10.0 mi Calm Calm - N/A   Clear
1:54 AM 36.0 °F - 32.0 °F 86% 30.26 in 10.0 mi Calm Calm - N/A   Clear
2:54 AM 34.0 °F - 32.0 °F 92% 30.26 in 10.0 mi Calm Calm - N/A   Clear
3:54 AM 33.1 °F 30.0 °F 30.9 °F 92% 30.26 in 10.0 mi SE 3.5 mph - N/A   Clear
4:54 AM 32.0 °F - 30.0 °F 92% 30.26 in 10.0 mi Calm Calm - N/A   Clear
5:54 AM 32.0 °F - 30.0 °F 92% 30.26 in 10.0 mi Calm Calm - N/A   Clear
6:54 AM 30.9 °F - 28.9 °F 92% 30.27 in 10.0 mi Calm Calm - N/A   Clear
7:54 AM 33.1 °F - 30.0 °F 89% 30.28 in 10.0 mi Calm Calm - N/A   Clear
8:54 AM 42.1 °F - 36.0 °F 79% 30.29 in 10.0 mi Calm Calm - N/A   Clear
9:54 AM 51.1 °F - 39.0 °F 63% 30.28 in 10.0 mi Calm Calm - N/A   Clear
10:54 AM 57.0 °F - 39.0 °F 51% 30.27 in 10.0 mi NNE 8.1 mph - N/A   Clear
11:54 AM 62.1 °F - 36.0 °F 38% 30.26 in 10.0 mi North 10.4 mph - N/A   Clear
12:54 PM 66.0 °F - 33.1 °F 29% 30.25 in 10.0 mi NE 6.9 mph - N/A   Clear
1:54 PM 69.1 °F - 28.9 °F 22% 30.22 in 9.0 mi NNE 9.2 mph - N/A   Clear
2:54 PM 71.1 °F - 28.0 °F 20% 30.21 in 10.0 mi North 12.7 mph - N/A   Clear
3:54 PM 71.1 °F - 28.0 °F 20% 30.19 in 10.0 mi NNE 11.5 mph - N/A   Clear
4:54 PM 70.0 °F - 26.1 °F 19% 30.19 in 10.0 mi NNE 12.7 mph - N/A   Clear
5:54 PM 66.9 °F - 28.0 °F 23% 30.19 in 10.0 mi NNE 10.4 mph - N/A   Clear
6:54 PM 62.1 °F - 28.9 °F 29% 30.19 in 10.0 mi NNE 6.9 mph - N/A   Clear
7:54 PM 57.0 °F - 30.0 °F 36% 30.20 in 10.0 mi North 4.6 mph - N/A   Clear
8:54 PM 48.9 °F - 28.9 °F 46% 30.21 in 10.0 mi Calm Calm - N/A   Clear
9:54 PM 45.0 °F - 30.0 °F 56% 30.21 in 10.0 mi Calm Calm - N/A   Clear
10:54 PM 44.1 °F - 30.9 °F 60% 30.21 in 10.0 mi Calm Calm - N/A   Clear
11:54 PM 39.9 °F - 32.0 °F 73% 30.21 in 10.0 mi Calm Calm - N/A   Clear